THOR ABLESTAR DEB, 155

Orbit data source: Space-Track

THOR ABLESTAR DEB, 155 is space debris in LEO originally from a launch on Thu, 29 Jun 1961 UTC launched from the Air Force Eastern Test Range (AFETR). Debris objects in space refer to the collection of defunct objects orbiting the Earth. Examples of debris include non-operational satellites, rocket bodies, and fragments generated from explosions, collisions, or faulty payload assembly.

Loading next visibility...
Identifier
155, 1961-015AR
Orbit
LEO
Country
Flag of USUS
Related business
Manufacturer
Unknown
Mission
Spacecraft
Bus & Motor
Unknown
Mass
Unknown
Launch date (UTC)
1961-06-29 (65 years ago)
Launch vehicle
Unknown
Launch site
Air Force Eastern Test Range (AFETR)
Object type
Payload
Rocket body
Debris
Shape & HBR
Unknown shape, 0.1 m
Radar Cross Section
Medium (>0.1 m² and <1 m²)

Expand to show TLE details & history
Last TLE update: 13 hours ago

TLE from 13 hours ago
0 THOR ABLESTAR DEB
1 00155U 61015AR  26149.54829083  .00002962  00000-0  74291-3 0  9990
2 00155  66.8766 315.9794 0045179 269.9323  89.6611 14.52134586358400
Epoch: 2026-05-29T13:09Z
TLE epoch observation values (Epoch: 2026-05-29T13:09:32.327Z)
Latitude
-0.00001°
Longitude
-128.48239°
Altitude
720.783 km
Speed
7.495 km/s
True Right ascension
21h 03m 55s
True Declination
0° 00' 00"
Sunlit
Object was in daylight at epoch
Visualization orbit readout
Latitude
Unknown
Longitude
Unknown
Altitude
Unknown
Speed
Unknown
Apparent Right ascension
Unknown
Apparent Declination
Unknown
Sunlit
N/A
Visualization observer readout
Local Sidereal Time
11:17:26
Azimuth
Unknown
Elevation
Unknown
Doppler factor
Unknown
Orbital elements
Apogee altitude
749.078 km
Perigee altitude
684.967 km
Semi-major axis
7,095.16 km
Eccentricity
0.00452
Inclination
66.8766°
RAAN
315.9794°
Arg. of periapsis
269.9323°
True anomaly
90.17881°
Mean anomaly
89.6611°
Eccentric anomaly
89.91996°
Mean motion
3.63162 °/min
Orbital period
99.13 mins
BSTAR
0.00074291

Documentation

Showing up to 5 results
|